Simultaneous Nadir Overpasses (SNOs) Predictions

Prediction of SNOs between GOES-15 and NOAA-19 Satellite Orbit:

Table of predicted SNOs for the next 14.0 days since TLE Epoch: 2/28/2025
Index Date Time (GOES-15) GOES-15 Lat,Lon NOAA-19 Lat,Lon Distance(km) Time Diff (sec)
1 03/01/2025 17:44:59 0.02, 61.33 -0.46, 59.21 241.12 80
2 03/02/2025 17:29:45 0.02, 61.32 0.24, 62.26 107.54 80
3 03/03/2025 17:17:12 0.02, 61.32 0.95, 65.31 456.02 80
4 03/05/2025 05:48:33 -0.03, 61.36 0.78, 57.78 408.13 80
5 03/06/2025 05:36:00 -0.03, 61.36 0.06, 60.83 59.86 80
6 03/07/2025 05:26:05 -0.03, 61.36 -0.60, 63.89 288.42 80
7 03/09/2025 17:44:51 0.04, 61.31 -0.39, 59.40 217.68 80
8 03/10/2025 17:29:37 0.04, 61.32 0.29, 62.46 130.35 80
9 03/11/2025 17:17:03 0.04, 61.32 1.02, 65.51 478.45 80
10 03/13/2025 05:48:23 -0.05, 61.37 0.72, 57.98 387.00 80
11 03/14/2025 05:35:49 -0.04, 61.37 0.03, 61.03 38.46 80
